Terminal Aerodrome Forecast
Issued by NWS

Home | Current Version | Previous Version | Text Only | Print | Product List | Glossary Off
Versions: 1 2 3 4 5 6 7 8 9 10 11 12 13 14 15 16 17 18 19
000 FTUS41 KBOX 301140 TAFFMH TAF KFMH 301140Z 3012/3112 32006KT P6SM FEW250 FM302100 32007KT P6SM SCT050 FM310500 VRB03KT P6SM SCT030 FM311100 00000KT P6SM BKN050=

USA.gov is the U.S. government's official web portal to all federal, state and local government web resources and services.